Weather History for Glendive, MT

Change the Weather History Date:

Saturday, November 3, 2012

  Actual Average Record
Temperature  
Mean Temperature 32 °F -  
Max Temperature 35 °F 44 °F 62 °F (2001)
Min Temperature 30 °F 23 °F 17 °F (2003)
Degree Days  
Heating Degree Days 32    
Moisture  
Dew Point 30 °F    
Average Humidity 83    
Maximum Humidity 93    
Minimum Humidity 75    
Precipitation  
Precipitation 0.00 in - - ()
Sea Level Pressure  
Sea Level Pressure 30.14 in    
Wind  
Wind Speed 5 mph (NE)    
Max Wind Speed 9 mph    
Max Gust Speed -    
Visibility 9 miles    
Events      
Averages and records for this station are not official NWS values.
T = Trace of Precipitation, MM = Missing Value Source: NWS Daily Summary

Daily Weather History Graph

Daily Weather History Graph

Search for Another Location

Airport:

Trip Planner

Search our weather history database for the weather conditions in past years. The results will help you decide how hot, cold, wet, or windy it might be!

Date:

Astronomy

Nov. 03, 2012 Rise Set
Actual Time 7:46 AM MDT 5:38 PM MDT
Civil Twilight 7:13 AM MDT 6:11 PM MDT
Nautical Twilight 6:37 AM MDT 6:47 PM MDT
Astronomical Twilight 6:02 AM MDT 7:22 PM MDT
Moon 9:16 PM MDT (11/3) 11:58 AM MDT (11/3)
Length of Visible Light 10h 57m
Length of Day
9h 52m
Waning Gibbous, 80% of the Moon is Illuminated
Nov 3
Waning Gibbous
Nov 6
Last Quarter
Nov 13
New
Nov 20
First Quarter
Nov 28
Full

Hourly Weather History & Observations

Time (MDT) Temp. Windchill Dew Point Humidity Pressure Visibility Wind Dir Wind Speed Gust Speed Precip Events Conditions
12:15 AM 35.6 °F 32.8 °F 30.2 °F 81% 30.14 in 10.0 mi WNW 3.5 mph - N/A   Overcast
12:35 AM 35.6 °F 32.8 °F 30.2 °F 81% 30.15 in 10.0 mi WNW 3.5 mph - N/A   Overcast
12:55 AM 35.6 °F 32.8 °F 30.2 °F 81% 30.15 in 10.0 mi WNW 3.5 mph - N/A   Overcast
1:15 AM 35.6 °F - 30.2 °F 81% 30.15 in 10.0 mi Calm Calm - N/A   Overcast
1:35 AM 35.6 °F - 30.2 °F 81% 30.15 in 10.0 mi Calm Calm - N/A   Overcast
1:55 AM 35.6 °F - 30.2 °F 81% 30.15 in 10.0 mi Calm Calm - N/A   Overcast
2:15 AM 35.6 °F - 30.2 °F 81% 30.15 in 10.0 mi Calm Calm - N/A   Overcast
2:35 AM 35.6 °F 31.7 °F 30.2 °F 81% 30.15 in 10.0 mi WSW 4.6 mph - N/A   Overcast
2:55 AM 35.6 °F 31.7 °F 30.2 °F 81% 30.15 in 10.0 mi WNW 4.6 mph - N/A   Overcast
3:15 AM 35.6 °F 31.7 °F 30.2 °F 81% 30.15 in 10.0 mi West 4.6 mph - N/A   Overcast
3:35 AM 35.6 °F 31.7 °F 30.2 °F 81% 30.15 in 10.0 mi NW 4.6 mph - N/A   Overcast
3:55 AM 35.6 °F 32.8 °F 30.2 °F 81% 30.14 in 10.0 mi NW 3.5 mph - N/A   Overcast
4:15 AM 35.6 °F 31.7 °F 30.2 °F 81% 30.15 in 10.0 mi NW 4.6 mph - N/A   Overcast
4:35 AM 35.6 °F 32.8 °F 30.2 °F 81% 30.14 in 10.0 mi WNW 3.5 mph - N/A   Overcast
4:55 AM 35.6 °F 30.7 °F 30.2 °F 81% 30.14 in 10.0 mi NW 5.8 mph - N/A   Overcast
5:15 AM 33.8 °F 29.6 °F 30.2 °F 87% 30.14 in 5.0 mi NNW 4.6 mph - N/A   Overcast
5:35 AM 33.8 °F 30.8 °F 30.2 °F 87% 30.14 in 10.0 mi NW 3.5 mph - N/A   Overcast
5:55 AM 33.8 °F 28.6 °F 30.2 °F 87% 30.14 in 9.0 mi North 5.8 mph - N/A   Overcast
6:15 AM 33.8 °F 28.6 °F 30.2 °F 87% 30.15 in 8.0 mi North 5.8 mph - N/A   Overcast
6:35 AM 33.8 °F 27.7 °F 30.2 °F 87% 30.15 in 7.0 mi North 6.9 mph - N/A   Overcast
6:55 AM 33.8 °F 27.7 °F 30.2 °F 87% 30.15 in 5.0 mi NNE 6.9 mph - N/A   Overcast
7:15 AM 32.0 °F 26.4 °F 30.2 °F 93% 30.16 in 7.0 mi North 5.8 mph - N/A   Overcast
7:35 AM 32.0 °F 26.4 °F 28.4 °F 87% 30.16 in 5.0 mi North 5.8 mph - N/A   Overcast
7:55 AM 32.0 °F 27.5 °F 28.4 °F 87% 30.16 in 4.0 mi NNE 4.6 mph - N/A   Overcast
8:15 AM 32.0 °F 26.4 °F 30.2 °F 93% 30.17 in 2.5 mi NE 5.8 mph - N/A   Overcast
8:35 AM 32.0 °F 26.4 °F 30.2 °F 93% 30.17 in 2.0 mi NE 5.8 mph - N/A   Overcast
8:55 AM 32.0 °F 25.6 °F 30.2 °F 93% 30.18 in 1.8 mi NE 6.9 mph - N/A   Overcast
9:15 AM 32.0 °F 24.2 °F 30.2 °F 93% 30.17 in 1.2 mi ENE 9.2 mph - N/A   Overcast
9:55 AM 30.2 °F 22.6 °F 28.4 °F 93% 30.17 in 1.8 mi ENE 8.1 mph - N/A   Overcast
10:16 AM 30.2 °F 22.6 °F 28.4 °F 93% 30.17 in 2.0 mi ENE 8.1 mph - N/A   Overcast
10:35 AM 30.2 °F 22.6 °F 28.4 °F 93% 30.17 in 3.0 mi ENE 8.1 mph - N/A   Overcast
10:55 AM 32.0 °F 25.6 °F 28.4 °F 87% 30.17 in 4.0 mi ENE 6.9 mph - N/A   Overcast
11:15 AM 32.0 °F 25.6 °F 28.4 °F 87% 30.17 in 9.0 mi ENE 6.9 mph - N/A   Overcast
11:35 AM 32.0 °F 25.6 °F 28.4 °F 87% 30.17 in 10.0 mi NE 6.9 mph - N/A   Overcast
11:55 AM 33.8 °F 28.6 °F 28.4 °F 81% 30.17 in 10.0 mi ENE 5.8 mph - N/A   Overcast
12:15 PM 33.8 °F 27.0 °F 28.4 °F 81% 30.17 in 10.0 mi ENE 8.1 mph - N/A   Overcast
12:35 PM 33.8 °F 28.6 °F 28.4 °F 81% 30.16 in 10.0 mi ENE 5.8 mph - N/A   Overcast
12:55 PM 33.8 °F 27.0 °F 28.4 °F 81% 30.16 in 10.0 mi ENE 8.1 mph - N/A   Overcast
1:15 PM 35.6 °F 30.7 °F 30.2 °F 81% 30.16 in 10.0 mi ENE 5.8 mph - N/A   Overcast
1:35 PM 35.6 °F 29.2 °F 28.4 °F 75% 30.15 in 10.0 mi ENE 8.1 mph - N/A   Overcast
1:55 PM 35.6 °F 29.9 °F 28.4 °F 75% 30.15 in 10.0 mi ENE 6.9 mph - N/A   Overcast
2:15 PM 35.6 °F 28.6 °F 28.4 °F 75% 30.14 in 10.0 mi ENE 9.2 mph - N/A   Overcast
2:35 PM 35.6 °F 29.9 °F 28.4 °F 75% 30.14 in 10.0 mi East 6.9 mph - N/A   Overcast
2:55 PM 35.6 °F 29.9 °F 28.4 °F 75% 30.13 in 10.0 mi NE 6.9 mph - N/A   Overcast
3:15 PM 35.6 °F 30.7 °F 30.2 °F 81% 30.13 in 10.0 mi ENE 5.8 mph - N/A   Overcast
3:35 PM 35.6 °F 30.7 °F 28.4 °F 75% 30.13 in 10.0 mi NE 5.8 mph - N/A   Overcast
3:55 PM 35.6 °F 32.8 °F 28.4 °F 75% 30.13 in 10.0 mi NNE 3.5 mph - N/A   Overcast
4:15 PM 35.6 °F 31.7 °F 28.4 °F 75% 30.13 in 10.0 mi NE 4.6 mph - N/A   Overcast
4:35 PM 35.6 °F 30.7 °F 28.4 °F 75% 30.13 in 10.0 mi ENE 5.8 mph - N/A   Overcast
4:55 PM 35.6 °F 29.9 °F 28.4 °F 75% 30.13 in 10.0 mi ENE 6.9 mph - N/A   Overcast
5:15 PM 35.6 °F 30.7 °F 28.4 °F 75% 30.14 in 10.0 mi NE 5.8 mph - N/A   Overcast
5:35 PM 35.6 °F 29.9 °F 28.4 °F 75% 30.13 in 10.0 mi ENE 6.9 mph - N/A   Overcast
5:55 PM 35.6 °F 31.7 °F 28.4 °F 75% 30.13 in 10.0 mi ENE 4.6 mph - N/A   Overcast
6:15 PM 35.6 °F 29.9 °F 28.4 °F 75% 30.13 in 10.0 mi ENE 6.9 mph - N/A   Overcast
6:35 PM 35.6 °F 29.9 °F 30.2 °F 81% 30.12 in 10.0 mi ENE 6.9 mph - N/A   Overcast
6:55 PM 35.6 °F 30.7 °F 30.2 °F 81% 30.12 in 10.0 mi ENE 5.8 mph - N/A   Overcast
7:15 PM 35.6 °F 29.9 °F 30.2 °F 81% 30.12 in 10.0 mi East 6.9 mph - N/A   Overcast
7:35 PM 35.6 °F 30.7 °F 30.2 °F 81% 30.13 in 10.0 mi ENE 5.8 mph - N/A   Overcast
7:55 PM 35.6 °F 30.7 °F 30.2 °F 81% 30.12 in 10.0 mi ENE 5.8 mph - N/A   Overcast
8:15 PM 35.6 °F 29.2 °F 30.2 °F 81% 30.10 in 10.0 mi ENE 8.1 mph - N/A   Overcast
8:35 PM 35.6 °F 29.9 °F 30.2 °F 81% 30.10 in 10.0 mi East 6.9 mph - N/A   Overcast
8:55 PM 35.6 °F 31.7 °F 30.2 °F 81% 30.10 in 10.0 mi East 4.6 mph - N/A   Overcast
9:15 PM 35.6 °F 29.9 °F 30.2 °F 81% 30.09 in 10.0 mi East 6.9 mph - N/A   Overcast
9:35 PM 35.6 °F 30.7 °F 32.0 °F 87% 30.09 in 10.0 mi ESE 5.8 mph - N/A   Overcast
9:55 PM 35.6 °F 31.7 °F 33.8 °F 93% 30.08 in 10.0 mi ESE 4.6 mph - N/A   Overcast
10:15 PM 35.6 °F 31.7 °F 33.8 °F 93% 30.09 in 10.0 mi ESE 4.6 mph - N/A   Overcast
10:35 PM 35.6 °F 30.7 °F 32.0 °F 87% 30.08 in 10.0 mi SE 5.8 mph - N/A   Overcast
11:15 PM 35.6 °F 32.8 °F 32.0 °F 87% 30.08 in 10.0 mi SE 3.5 mph - N/A   Overcast
11:35 PM 35.6 °F 31.7 °F 33.8 °F 93% 30.07 in 10.0 mi East 4.6 mph - N/A   Overcast
11:55 PM 35.6 °F 31.7 °F 32.0 °F 87% 30.06 in 10.0 mi ESE 4.6 mph - N/A   Overcast